SCP
1 1 1 1 1 1 1 1 1 0 0 0 0 0 0 0 0 0 0 0 0 0 0 0 0 0 0 0 0 0 0 0 0 0 0 0 0 0 0 0 0 0 0
2 1 1 1 1 1 1 1 1 0 0 0 0 0 0 0 0 0 0 0 0 0 0 0 0 0 0 0 0 0 0 0 0 0 0 0 0 0 0 0 0 0 0
2 2 1 0 1 1 1 1 1 0 0 0 0 0 0 0 0 0 0 0 0 0 0 0 0 0 0 0 0 0 0 0 0 0 0 0 0 0 0 0 0 0 0
2 2 1 0 0 1 1 1 1 0 0 0 0 0 0 0 0 0 0 0 0 0 0 0 0 0 0 0 0 0 0 0 0 0 0 0 0 0 0 0 0 0 0
2 1 1 0 0 1 1 1 0 0 0 0 0 0 0 0 0 0 0 0 0 0 0 0 0 0 0 0 0 0 0 0 0 0 0 0 0 0 0 0 0 0 0
2 1 0 0 0 1 1 1 0 0 0 0 0 0 0 0 0 0 0 0 0 0 0 0 0 0 0 0 0 0 0 0 0 0 0 0 0 0 0 0 0 0 0
1 0 0 0 1 1 1 1 0 0 0 0 0 0 0 0 0 0 0 0 0 0 0 0 0 0 0 0 0 0 0 0 0 0 0 0 0 0 0 0 0 0 0
0 0 0 0 1 1 1 1 0 0 0 0 0 0 0 0 0 0 0 0 0 0 0 0 0 0 0 0 0 0 0 0 0 0 0 0 0 0 0 0 0 0 0
0 0 0 0 0 1 1 0 0 0 0 0 0 0 0 0 0 0 0 0 0 0 0 0 0 0 0 0 0 0 0 0 0 0 0 0 0 0 0 0 0 0 0
0 0 0 0 0 0 0 0 0 0 0 0 0 0 0 0 0 0 0 0 0 0 0 0 0 0 0 0 0 0 0 0 0 0 0 0 0 0 0 0 0 0 0
0 0 0 0 0 0 0 0 0 0 0 0 0 0 0 0 0 0 0 0 0 0 0 0 0 0 0 0 0 0 0 0 0 0 0 0 0 0 0 0 0 0 0
0 0 0 0 0 0 0 0 0 0 0 0 0 0 0 0 0 0 0 0 0 0 0 0 0 0 0 0 0 0 0 0 0 0 0 0 0 0 0 0 0 0 0
0 0 0 0 0 0 0 0 0 0 0 0 0 0 0 0 0 0 0 0 0 0 0 0 0 0 0 0 0 0 0 0 0 0 0 0 0 0 0 0 0 0 0
0 0 0 0 0 0 0 0 0 0 0 0 0 0 0 0 0 0 0 0 0 0 0 0 0 0 0 0 0 0 0 0 0 0 0 0 0 0 0 0 0 0 0
0 0 0 0 0 0 0 0 0 0 0 0 0 0 0 0 0 0 0 0 0 0 0 0 0 0 0 0 0 0 0 0 0 0 0 0 0 0 0 0 0 0 0
0 0 0 0 0 0 0 0 0 0 0 0 0 0 0 0 0 0 0 0 0 0 0 0 0 0 0 0 0 0 0 0 0 0 0 0 0 0 0 0 0 0 0
0 0 0 0 0 0 0 0 0 0 0 0 0 0 0 0 0 0 0 0 0 0 0 0 0 0 0 0 0 0 0 0 0 0 0 0 0 0 0 0 0 0 0
0 0 0 0 0 0 0 0 0 0 0 0 0 0 0 0 0 0 0 0 0 0 0 0 0 0 0 0 0 0 0 0 0 0 0 0 0 0 0 0 0 0 0
0 0 0 0 0 0 0 0 0 0 0 0 0 0 0 0 0 0 0 0 0 0 0 0 0 0 0 0 0 0 0 0 0 0 0 0 0 0 0 0 0 0 0
0 0 0 0 0 0 0 0 0 0 0 0 0 0 0 0 0 0 0 0 0 0 0 0 0 0 0 0 0 0 0 0 0 0 0 0 0 0 0 0 0 0 0
0 0 0 0 0 0 0 0 0 0 0 0 0 0 0 0 0 0 0 0 0 0 0 0 0 0 0 0 0 0 0 0 0 0 0 0 0 0 0 0 0 0 0
0 0 0 0 0 0 0 0 0 0 0 0 0 0 0 0 0 0 0 0 0 0 0 0 0 0 0 0 0 0 0 0 0 0 0 0 0 0 0 0 0 0 0
0 0 0 0 0 0 0 0 0 0 0 0 0 0 0 0 0 0 0 0 0 0 0 0 0 0 0 0 0 0 0 0 0 0 0 0 0 0 0 0 0 0 0
0 0 0 0 0 0 0 0 0 0 0 0 0 0 0 0 0 0 0 0 0 0 0 0 0 0 0 0 0 0 0 0 0 0 0 0 0 0 0 0 0 0 0
0 0 0 0 0 0 0 0 0 0 0 0 0 0 0 0 0 0 0 0 0 0 0 0 0 0 0 0 0 0 0 0 0 0 0 0 0 0 0 0 0 0 0
0 0 0 0 0 0 0 0 0 0 0 0 0 0 0 0 0 0 0 0 0 0 0 0 0 0 0 0 0 0 0 0 0 0 0 0 0 0 0 0 0 0 0
Wind_Speed
4 5 5 5 5 5 5 5 5 5 5 6 6 6 6 6 6 6 6 6 6 6 5 6 5 5 4 3 3 3 3 3 3 2 2 2 3 3 2 3 2 3 2
4 4 5 5 5 5 5 5 5 5 5 5 5 5 5 6 6 6 6 6 7 7 6 6 6 5 5 4 3 4 3 3 3 3 2 2 3 3 3 3 3 3 3
4 4 5 5 5 5 5 5 5 5 5 5 6 6 6 6 6 7 6 6 6 7 7 7 6 6 6 4 4 4 3 3 3 3 3 2 2 2 3 3 3 3 3
3 4 4 5 5 5 5 5 5 5 5 6 6 6 5 5 6 6 6 6 6 6 6 6 6 7 6 6 5 5 4 4 4 3 3 3 2 2 3 3 3 3 3
3 3 4 4 4 5 5 5 4 5 5 5 5 5 5 5 5 5 5 5 6 6 5 5 6 6 6 5 4 5 5 4 4 3 3 3 3 2 3 2 3 3 4
2 3 3 3 3 4 4 4 4 4 4 4 5 5 5 4 6 7 5 5 5 6 5 5 5 6 6 7 7 6 6 6 5 4 4 4 5 4 3 3 3 3 4
2 2 2 3 3 4 4 4 4 4 4 4 5 5 5 5 7 7 6 4 5 5 5 5 4 4 6 5 6 7 7 7 7 6 6 6 5 5 4 4 4 5 5
1 1 2 2 2 3 4 4 4 4 4 4 4 4 4 5 7 7 6 4 4 4 5 6 5 5 5 5 5 5 5 6 6 5 5 5 4 4 5 5 5 5 5
1 1 1 2 2 2 3 4 3 3 3 3 3 3 4 4 6 6 5 3 3 4 4 4 5 6 7 8 6 5 5 5 5 5 5 5 5 5 5 3 4 4 4
0 0 0 1 1 2 2 3 2 2 2 2 2 2 3 3 5 6 5 3 3 3 3 3 5 6 8 8 6 6 6 5 4 3 4 4 4 4 5 5 4 4 4
1 1 1 0 0 1 1 1 2 2 2 2 2 2 2 3 4 6 5 3 3 3 3 3 3 6 8 8 7 5 6 5 4 3 3 3 3 3 3 4 4 4 4
1 1 1 1 0 1 1 1 1 2 2 2 2 2 1 2 3 4 5 4 3 3 3 3 3 5 6 6 6 5 6 5 3 3 3 3 3 3 3 3 4 4 4
1 1 1 1 1 1 1 1 1 2 2 2 2 2 2 1 2 4 5 5 4 3 2 3 3 4 5 4 5 5 5 4 3 3 3 3 3 2 2 2 3 3 4
1 1 1 1 1 1 0 0 1 1 2 2 2 2 2 2 2 2 2 2 4 3 2 3 3 3 3 3 3 3 3 3 3 3 3 2 2 2 2 2 3 3 3
1 1 1 1 1 1 1 1 0 1 2 2 2 2 2 2 3 3 2 2 2 2 1 1 1 2 2 2 2 2 2 2 2 2 2 2 2 2 3 3 3 3 4
0 1 0 0 0 0 0 1 2 1 1 2 2 2 2 2 2 3 3 3 3 3 2 2 2 2 2 2 2 2 2 2 2 2 3 3 3 3 3 3 3 3 4
1 1 1 1 0 0 0 0 1 1 1 1 1 1 2 2 2 2 3 3 3 3 2 2 2 2 2 2 2 2 2 2 2 2 3 3 3 3 3 3 3 4 4
1 1 1 1 1 1 1 1 1 1 1 1 1 1 1 1 1 1 2 2 2 2 2 2 2 2 2 2 2 2 2 2 2 2 2 2 3 3 3 4 4 4 4
1 1 1 1 1 1 1 1 1 1 1 1 1 1 1 1 1 1 1 1 1 1 1 1 2 2 2 2 2 3 3 3 3 3 3 3 3 3 4 4 4 6 5
1 1 2 1 1 1 1 1 1 1 1 1 1 1 1 1 1 1 1 1 1 2 2 2 2 2 2 3 3 3 3 3 3 3 3 3 4 4 4 5 5 5 5
1 1 2 1 1 1 1 1 1 1 1 2 2 2 3 2 1 2 2 2 2 2 2 2 2 3 3 3 3 4 4 4 4 4 4 4 4 4 4 4 5 5 5
1 1 1 1 1 1 1 1 1 2 2 2 2 2 3 2 2 2 2 2 2 2 2 2 3 3 3 3 3 4 4 4 4 4 4 4 4 4 4 4 4 5 5
1 1 1 1 1 2 2 2 2 2 2 2 2 2 2 2 2 2 2 2 2 2 2 2 3 3 3 3 4 4 5 5 4 4 4 4 4 4 4 5 6 6 5
1 2 2 2 2 2 2 2 2 2 3 3 3 3 3 3 3 3 3 3 3 3 3 3 3 4 5 4 4 4 5 5 5 4 6 5 5 4 4 5 5 6 6
1 2 2 2 2 2 2 2 3 3 3 3 3 3 3 3 3 3 3 3 3 3 4 4 3 4 5 6 6 5 7 9 8 5 5 5 6 6 5 6 6 6 6
1 2 2 2 2 3 3 3 3 3 3 3 3 3 3 3 3 3 3 3 3 3 4 4 5 6 6 6 7 8 9 10 10 9 6 4 5 5 6 5 7 6 7
Wind_Direction
197 199 196 197 194 190 191 194 190 184 183 184 186 187 192 191 191 194 196 193 198 199 200 204 207 207 208 210 210 220 229 236 230 243 236 227 246 258 263 269 274 276 285
195 197 196 195 190 189 191 191 189 187 185 184 184 188 192 193 192 193 195 196 200 201 201 203 206 205 208 209 208 216 225 237 227 229 228 225 241 251 262 267 275 276 280
194 191 195 195 194 195 194 189 188 188 184 184 187 190 195 196 197 198 195 199 203 203 201 203 205 205 209 209 208 215 219 227 225 221 227 228 237 245 259 265 270 271 278
195 194 197 200 199 199 195 190 189 190 188 189 192 195 196 197 200 199 197 200 200 200 202 203 206 210 213 210 211 216 215 220 211 213 221 223 231 244 252 256 263 268 278
197 200 205 206 200 194 191 188 188 190 191 190 191 195 197 198 198 199 200 201 195 194 199 207 211 216 220 217 214 213 211 218 212 214 218 225 227 229 240 251 261 273 278
200 205 206 199 195 191 188 183 184 186 188 191 193 194 199 204 201 201 202 201 193 192 198 205 207 209 211 219 224 225 224 223 218 219 225 228 236 239 239 245 257 267 272
192 197 195 193 192 192 186 180 185 188 189 196 199 196 203 203 200 198 200 202 198 197 199 202 207 208 210 213 219 227 232 241 237 230 231 236 241 238 235 241 249 261 270
176 182 184 186 195 191 184 183 185 186 190 196 201 201 202 203 199 197 194 201 203 202 206 208 208 208 207 208 212 219 229 238 238 237 238 243 246 243 237 245 254 263 277
165 192 186 183 187 188 183 184 184 186 193 197 197 200 202 201 196 194 182 192 203 207 212 213 211 213 208 209 215 221 231 238 239 240 250 255 258 256 252 239 234 239 259
332 314 301 198 184 187 192 185 182 184 191 186 189 202 205 204 197 192 185 191 203 211 216 222 225 221 211 212 218 220 223 230 230 226 232 236 240 238 239 237 236 241 255
359 17 19 15 185 161 149 160 161 163 165 172 189 204 206 206 200 194 194 203 205 211 216 222 227 220 219 220 230 231 230 232 225 222 228 233 236 234 237 244 248 244 244
45 44 28 18 39 120 127 135 145 155 165 174 183 189 198 203 210 206 210 216 218 222 226 229 225 221 227 232 237 234 228 225 216 214 223 232 236 242 253 260 263 264 262
56 47 36 28 42 83 140 148 149 168 180 184 190 188 194 210 214 213 213 215 222 235 233 232 231 227 236 238 237 234 224 222 213 214 223 234 244 252 261 269 273 269 269
51 33 32 46 52 58 66 160 170 188 197 197 201 200 201 205 208 206 205 210 216 226 223 216 221 229 242 244 233 227 228 228 222 222 231 236 241 246 253 261 267 267 267
44 29 27 36 52 45 23 356 291 249 243 230 224 215 210 217 223 227 222 215 220 223 208 210 217 220 223 223 226 224 224 221 227 232 229 231 238 245 256 265 267 266 264
30 12 7 14 16 25 42 18 14 306 307 278 266 262 263 257 228 217 220 222 224 201 192 201 213 221 225 224 224 230 233 237 239 239 236 233 236 244 254 261 261 258 263
329 327 333 334 329 304 284 283 322 8 12 305 263 248 243 223 208 206 198 195 199 193 205 206 217 227 236 240 240 238 242 246 243 238 238 238 241 248 254 257 259 262 264
324 318 303 304 296 286 275 282 282 276 286 300 321 307 255 216 199 185 170 173 193 199 214 216 227 236 241 243 247 249 246 242 239 239 241 242 241 246 251 255 256 260 264
314 308 299 290 279 272 273 275 273 266 270 284 299 301 305 262 229 188 171 204 203 210 224 237 244 245 246 248 250 252 249 245 244 244 243 242 241 242 248 253 256 261 263
307 312 295 278 269 270 270 269 264 257 259 264 271 291 291 267 239 217 219 230 228 231 237 244 248 250 250 249 248 249 248 245 241 241 242 243 242 243 247 251 255 259 261
303 304 304 291 282 279 275 273 267 259 262 272 280 289 284 272 259 251 245 242 245 247 248 250 250 248 249 249 247 247 249 247 243 242 242 244 243 245 249 252 254 256 261
304 301 304 290 281 277 271 268 266 268 267 270 281 285 281 271 257 252 252 258 263 264 259 253 252 252 250 247 245 247 247 246 244 239 239 240 241 245 248 249 251 254 257
300 297 295 290 275 278 278 271 266 266 268 269 272 275 276 271 263 260 264 270 271 267 262 256 255 257 256 255 252 248 246 244 244 242 240 240 241 243 245 247 249 253 257
301 294 292 294 286 273 271 272 270 269 271 272 272 270 267 267 266 265 266 267 266 266 264 261 258 258 261 262 258 253 249 247 245 241 239 240 241 244 246 248 251 251 253
308 304 298 293 289 282 276 273 272 272 272 271 272 272 270 267 266 266 266 265 265 264 265 265 261 259 258 260 261 261 253 252 253 248 241 238 238 241 244 248 250 253 253
295 292 290 287 284 281 277 273 273 274 272 271 270 270 269 267 265 266 266 263 263 264 266 265 262 264 265 264 263 261 260 257 255 255 249 237 237 240 240 244 248 250 251